Other Public Products
Issued by NWS Grand Forks, ND

Home | Current Version | Previous Version | Graphics & Text | Print | Product List | Glossary On
Versions: 1 2 3 4 5 6 7 8 9 10 11 12 13 14 15 16 17 18 19 20 21 22 23 24 25 26 27 28 29 30 31 32 33 34 35 36 37 38 39 40 41 42 43 44 45 46 47 48 49 50
000
FPUS83 KFGF 251331
OPUFGF
PRAIRIE TO PINES WEATHER ROUNDUP
NATIONAL WEATHER SERVICE EASTERN NORTH DAKOTA/GRAND FORKS ND
700 AM CST SUN JAN 25 2015

 **SATELLITE DATA USED TO AUGMENT SKY COVER AT AUTOMATED STATIONS**
 *****  WEATHER ACROSS EASTERN NORTH DAKOTA  *****

CITY           SKY/WX    TMP DP  RH WIND       PRES   REMARKS
GRAND FORKS    PTCLDY    11   7  84 N5        30.02R WCI   3
GRAND FORKS AF CLEAR     10   6  84 N7        30.02R WCI  -2
GRAND CITY NWS   N/A     10 N/A N/A VRB2        N/A
BUXTON         NOT AVBL
DEVILS LAKE    CLOUDY    16  10  79 NE3       29.98R
FARGO          CLOUDY    21  15  78 N10       29.98R WCI  10
WAHPETON ARPT  MOSUNNY   19  16  86 NW13      29.98R WCI   7
$$

 *****  WEATHER ACROSS CENTRAL AND WESTERN NORTH DAKOTA  *****

CITY           SKY/WX    TMP DP  RH WIND       PRES   REMARKS
JAMESTOWN      CLOUDY    19  16  88 N5        29.96R WCI  12
BISMARCK       CLOUDY    36  32  85 NW8       29.97R
MINOT          LGT SNOW  23  21  92 N3        29.97R FOG
MINOT AFB      FRZ DRZL  21  21 100 NW5       29.97R WCI  15
GARRISON         N/A     34  32  92 NW10      29.95R
WILLISTON      CLOUDY    33  28  81 NW8       29.99S
DICKINSON      CLOUDY    34  28  79 NW16      29.97R WCI  24
HETTINGER      CLOUDY    33  27  78 NW15      30.00R WCI  23
$$

 *****  OTHER OBSERVATIONS NORTHEAST NORTH DAKOTA  *****

CITY           SKY/WX    TMP DP  RH WIND       PRES   REMARKS
WALHALLA         N/A     14  14 100 NW3       30.04R
LANGDON        CLOUDY    14   9  79 N3        29.97R
CAVALIER       CLOUDY    14  10  85 N3        30.04R
GRAFTON        NOT AVBL
CANDO          CLOUDY    16  10  79 NE3       29.99R
FORT TOTTEN      N/A     16  12  85 CALM      29.95S
ROLLA          CLOUDY    14  12  92 CALM      29.96F
RUGBY          CLOUDY    16  14  93 SE3       29.98S
 ***** THE ABOVE OBSERVATIONS ARE NON NWS ARE NOT QUALITY
        CONTROLLED AND MAY MIS-REPORT RAIN FOR SNOW...
$$

 *****  OTHER OBSERVATIONS SOUTHEAST NORTH DAKOTA *****

CITY           SKY/WX    TMP DP  RH WIND       PRES   REMARKS
COOPERSTOWN    NOT AVBL
VALLEY CITY    NOT AVBL
OAKES            N/A     23  23 100 N8        29.98R WCI  14
GWINNER        CLOUDY    23  21  93 N13       29.99R WCI  11
SHEYENNE NWR     N/A     20  15  81 N7        29.95S WCI  11
BUFFALO        NOT AVBL
WYNDMERE         N/A     19  16  86 N12         N/A  WCI   7
 ***** THE ABOVE OBSERVATIONS ARE NON NWS ARE NOT QUALITY
       CONTROLLED AND MAY MIS-REPORT RAIN FOR SNOW...
$$

  *****  WEATHER ACROSS NORTHERN MINNESOTA  *****

CITY           SKY/WX    TMP DP  RH WIND       PRES   REMARKS
FLAG ISLAND    MOCLDY     7   0  72 E3        30.01S
WARROAD        CLOUDY     9   3  78 E5        30.02R WCI   0
ROSEAU         CLOUDY    10   3  72 NE9       30.01S WCI  -2
HALLOCK        CLOUDY    10   3  72 CALM      30.03R
THF RVR FALLS  CLEAR      9   5  85 NE3       29.99S
HALSTAD          N/A     16  10  79 N6          N/A  WCI   7
FOSSTON        CLEAR      9   3  78 NE3       29.97S
BAUDETTE       CLOUDY     7  -2  66 E7        29.99R WCI  -5
WASKISH        CLOUDY    10   3  72 CALM      29.99R
CROOKSTON      CLEAR     12   9  85 NE5       30.03R WCI   4
$$
  *****  WEATHER ACROSS CENTRAL AND WEST MINNESOTA  *****

CITY           SKY/WX    TMP DP  RH WIND       PRES   REMARKS
BEMIDJI        CLOUDY    15  10  80 NE6       29.96R WCI   6
PARK RAPIDS    CLOUDY    22  13  68 NE3       29.92R
WADENA         CLOUDY    21  16  79 E3        29.91F
DETROIT LAKES  FAIR      21  18  86 CALM      29.95R
MOORHEAD       PTCLDY    21  18  86 N10       30.00R WCI  10
FERGUS FALLS   CLOUDY    21  19  93 NW9       29.98R WCI  11
ELBOW LAKE     PTSUNNY   25  23  93 CALM      29.92S
MORRIS MN      CLOUDY    28  27  93 NW8       29.92R WCI  20
STAPLES        CLOUDY    23  18  80 E7        29.92F WCI  15
WHEATON        CLOUDY    19  18  93 NW8       29.99R WCI   9
$$
  *****  WEATHER ELSEWHERE ACROSS MINNESOTA  *****

CITY           SKY/WX    TMP DP  RH WIND       PRES   REMARKS
DULUTH         FLURRIES  17  12  80 NE9       29.95R WCI   6
INTRNTL FALLS  CLOUDY     2  -5  72 E8        30.01S WCI -12
ELY            MOCLDY    -4  -8  84 CALM      30.01R
CLOQUET        FLURRIES  18  14  86 NE10      29.96R WCI   6
BRAINERD       CLOUDY    20  13  74 E6        29.95R WCI  12
HIBBING        CLOUDY    15   6  67 NE6       29.97R WCI   6
ALEXANDRIA     CLOUDY    28  23  81 NE7       29.92R WCI  21
SAINT CLOUD    CLOUDY    22  15  75 E5        29.94R WCI  16
MINNEAPOLIS    MOCLDY    22  14  71 N14       29.93R WCI   9
$$

  *****  WEATHER ACROSS SOUTH DAKOTA  *****

CITY           SKY/WX    TMP DP  RH WIND       PRES   REMARKS
SIOUX FALLS    CLOUDY    33  32  96 N14       29.89R WCI  23
BROOKINGS      NOT AVBL
WATERTOWN      CLOUDY    29  26  89 N9        29.92R WCI  20
HURON          CLOUDY    30  28  92 N12       29.95R WCI  20
SISSETON         N/A     24  22  91 N14       29.96R WCI  12
ABERDEEN       CLOUDY    28  24  85 N10       29.98R WCI  19
MITCHELL       CLOUDY    32  30  92 N13       29.96R WCI  22
PIERRE         CLOUDY    37  31  78 NW14      29.97R
MOBRIDGE       CLOUDY    38  33  82 NW9       29.93R
RAPID CITY     CLEAR     32  21  64 N10       30.01S WCI  24
$$

  *****  SOME WEATHER IN NEARBY STATES *****

CITY           SKY/WX    TMP DP  RH WIND       PRES   REMARKS
GLASGOW MT     PTCLDY    30  24  78 W3        29.99F
GREAT FALLS MT CLOUDY    49  37  63 SW21      29.96F
CHEYENNE WY    CLEAR     36  22  56 NW13      30.12S
SCOTTSBLUFF NE CLEAR     34  27  75 W12       30.11R
OMAHA NE       CLOUDY    36  32  85 N25G32    29.77R
DES MOINES IA  LGT RAIN  37  33  85 N12       29.66R
DAVENPORT IA   LGT SNOW  33  30  88 E20       29.66R FOG     WCI  21
CHICAGO IL     LGTSLEET  32  30  92 NE21      29.73R WCI  20
EAU CLAIRE WI  CLOUDY    21  12  68 NE10      29.90R WCI  10
LA CROSSE WI   CLOUDY    28  21  75 E14       29.86R WCI  17
$$

  *****  SOME NATIONAL WEATHER *****

CITY           SKY/WX    TMP DP  RH WIND       PRES   REMARKS
LA GUARDIA NY  MOCLDY    36  26  67 SW13G22   29.69R
RALEIGH NC     PTCLDY    32  25  75 CALM      29.93R
ATLANTA GA     PTCLDY    32  27  81 SW5       29.96S
NEW ORLEANS LA PTCLDY    44  41  89 S6        30.05F
OKLAHOMA CITY  PTCLDY    50  31  48 NW16      29.96R
ALBUQUERQUE NM PTCLDY    28  19  69 N6        30.27R WCI  22
SALT LAKE CITY CLOUDY    34  29  82 NW3       30.46R
LOS ANGELES CA CLEAR     52  34  50 CALM      30.02S
BOISE ID       CLEAR     28  26  92 CALM      30.46R
SEATTLE WA     FOG       52  50  93 S3        30.20F VSB 3/4
$$

*** WEATHER ACROSS MANITOBA...SASKATCHEWAN AND ONTARIO ***
                ***ONTARIO***

CITY           SKY/WX    TMP DP  RH WIND       PRES   REMARKS
GERALDTON      CLEAR    -24 -29  76 CALM      30.06R
THUNDER BAY    MOCLDY   -13 -18  77 W5        30.12S WCI -25
SIOUX LOOKOUT  MOCLDY   -13 -17  84 SE3       30.03S
TORONTO        PTCLDY    10   3  72 N15       29.87R WCI  -6
BIG TROUT LK   CLEAR    -27 -33  75 SW2       30.09R HAZE
PICKLE LAKE    PTCLDY   -22 -27  76 S3        30.04R
DRYDEN         CLOUDY    -4  -8  84 NE2       30.03R
KENORA         CLOUDY     1  -6  71 SE6       30.00S WCI -10
$$
                *** MANITOBA***

CITY           SKY/WX    TMP DP  RH WIND       PRES   REMARKS
BRANDON        CLOUDY    10   7  85 CALM      30.00S
DAUPHIN        MOCLDY     9   7  92 CALM      29.97F
ISLAND LAKE    CRYSTALS -17 -22  76 SE6       30.04F WCI -31
PILOT MOUND      N/A     12   9  85 N2          N/A
THE PAS        FLURRIES   7   1  78 S8        29.89F WCI  -6
THOMPSON       FLURRIES  -4  -9  77 VRB2      29.93F
WINNIPEG       MOCLDY    14   5  67 CALM      30.05R
LYNN LAKE      FLURRIES   1  -2  85 S7        29.76F WCI -11
CHURCHILL      CLEAR    -27 -33  75 S5        30.08R WCI -42
GILLAM         CLEAR    -24 -29  76 S3        30.04F
$$
                ***SASKATCHEWAN***

CITY           SKY/WX    TMP DP  RH WIND       PRES   REMARKS
ESTEVAN        LGT SNOW  27  25  93 W8        29.96F FOG     WCI  18
KINDERSLEY     MOCLDY    28  25  86 S10       29.78F WCI  19
LLOYDMINSTER   CLOUDY    36  27  69 S12       29.69F
PRINCE ALBERT  CLOUDY    28  27  93 SW5       29.80F WCI  23
REGINA         FOG       25  23  93 SE7       29.94F VSB 3/8 WCI  17


USA.gov is the U.S. government's official web portal to all federal, state and local government web resources and services.